{"data":{"norad_id":59523,"epoch":"2026-09-21T12:29:16.083456Z","epoch_age_seconds":77181,"freshness":"FRESH","line1":"1 59523U 24073N   26264.52032504  .00000067  00000+0  11961-4 0  9995","line2":"2 59523  43.0023 292.2192 0001066 277.5890  82.4841 15.27578120136124","mean_motion":15.2757812,"eccentricity":0.0001066,"inclination_deg":43.0023,"raan_deg":292.2192,"arg_perigee_deg":277.589,"mean_anomaly_deg":82.4841,"bstar":1.1961e-5,"rev_number":13612,"period_min":94.266864728332,"perigee_km":482.32332240382,"apogee_km":483.78612847969,"semimajor_km":6861.1917254418,"source":"CELESTRAK","updated_at":"2026-09-22T09:00:48.965148Z"}}